| time (UTC) | temp C | wind direction | speed KPH | gust KPH | rain 1hr cm | rain 24hr cm | rain mn cm | humidity % | barometer mb |
| 20260902212840 | 33 | 254 | 3.2 | 3.2 | 0.00 | 0.00 | 0.00 | 54 | 1017.6 |
| 20260902212337 | 33 | 220 | 3.2 | 4.8 | 0.00 | 0.00 | 0.00 | 55 | 1017.6 |
| 20260902211833 | 33 | 51 | 3.2 | 3.2 | 0.00 | 0.00 | 0.00 | 53 | 1017.4 |
| 20260902211329 | 33 | 18 | 4.8 | 4.8 | 0.00 | 0.00 | 0.00 | 54 | 1017.6 |
| 20260902210824 | 34 | 260 | 3.2 | 3.2 | 0.00 | 0.00 | 0.00 | 53 | 1017.7 |
| 20260902210323 | 34 | 167 | 4.8 | 4.8 | 0.00 | 0.00 | 0.00 | 52 | 1017.8 |
| 20260902205821 | 33 | 145 | 1.6 | 3.2 | 0.00 | 0.00 | 0.00 | 53 | 1017.6 |
| 20260902205316 | 33 | 106 | 0.0 | 0.0 | 0.00 | 0.00 | 0.00 | 57 | 1017.7 |
| 20260902204812 | 33 | 108 | 0.0 | 1.6 | 0.00 | 0.00 | 0.00 | 55 | 1018.0 |
| 20260902204306 | 34 | 130 | 1.6 | 1.6 | 0.00 | 0.00 | 0.00 | 54 | 1017.8 |
| 20260902203801 | 35 | 106 | 1.6 | 1.6 | 0.00 | 0.00 | 0.00 | 52 | 1017.8 |
| 20260902203256 | 34 | 172 | 3.2 | 4.8 | 0.00 | 0.00 | 0.00 | 53 | 1017.9 |
| 20260902202751 | 33 | 106 | 0.0 | 0.0 | 0.00 | 0.00 | 0.00 | 55 | 1017.7 |
| 20260902202248 | 33 | 115 | 1.6 | 1.6 | 0.00 | 0.00 | 0.00 | 54 | 1017.9 |
| 20260902201744 | 34 | 117 | 1.6 | 1.6 | 0.00 | 0.00 | 0.00 | 56 | 1018.0 |
| 20260902201243 | 35 | 120 | 1.6 | 1.6 | 0.00 | 0.00 | 0.00 | 54 | 1017.8 |
| 20260902200738 | 35 | 80 | 1.6 | 3.2 | 0.00 | 0.00 | 0.00 | 54 | 1017.9 |
| 20260902200234 | 34 | 57 | 1.6 | 3.2 | 0.00 | 0.00 | 0.00 | 53 | 1017.9 |
| 20260902195729 | 33 | 32 | 3.2 | 3.2 | 0.00 | 0.00 | 0.00 | 53 | 1018.0 |
| 20260902195229 | 34 | 140 | 3.2 | 3.2 | 0.00 | 0.00 | 0.00 | 57 | 1017.9 |
| 20260902194728 | 33 | 53 | 3.2 | 3.2 | 0.00 | 0.00 | 0.00 | 56 | 1018.0 |
| 20260902194224 | 34 | 290 | 8.0 | 9.7 | 0.00 | 0.00 | 0.00 | 52 | 1018.4 |
| 20260902193719 | 34 | 95 | 1.6 | 1.6 | 0.00 | 0.00 | 0.00 | 57 | 1018.1 |
| 20260902193215 | 33 | 21 | 3.2 | 3.2 | 0.00 | 0.00 | 0.00 | 55 | 1018.5 |
| 20260902192713 | 34 | 273 | 4.8 | 8.0 | 0.00 | 0.00 | 0.00 | 53 | 1018.6 |
| 20260902192212 | 34 | 260 | 4.8 | 8.0 | 0.00 | 0.00 | 0.00 | 52 | 1018.6 |
| 20260902191707 | 33 | 68 | 3.2 | 3.2 | 0.00 | 0.00 | 0.00 | 54 | 1018.7 |
| 20260902191201 | 32 | 126 | 3.2 | 3.2 | 0.00 | 0.00 | 0.00 | 60 | 1018.8 |
| 20260902190657 | 32 | 75 | 1.6 | 3.2 | 0.00 | 0.00 | 0.00 | 58 | 1018.8 |
| 20260902190151 | 33 | 161 | 4.8 | 4.8 | 0.00 | 0.00 | 0.00 | 55 | 1018.7 |
| 20260902185647 | 35 | 155 | 3.2 | 4.8 | 0.00 | 0.00 | 0.00 | 51 | 1018.7 |
| 20260902185144 | 34 | 71 | 3.2 | 3.2 | 0.00 | 0.00 | 0.00 | 54 | 1018.8 |
| 20260902184643 | 33 | 94 | 0.0 | 1.6 | 0.00 | 0.00 | 0.00 | 56 | 1019.0 |
| 20260902184139 | 33 | 67 | 1.6 | 3.2 | 0.00 | 0.00 | 0.00 | 56 | 1018.7 |
| 20260902183635 | 34 | 333 | 4.8 | 8.0 | 0.00 | 0.00 | 0.00 | 52 | 1018.8 |
| 20260902183131 | 33 | 294 | 6.4 | 8.0 | 0.00 | 0.00 | 0.00 | 52 | 1018.7 |
| 20260902182627 | 33 | 120 | 3.2 | 3.2 | 0.00 | 0.00 | 0.00 | 55 | 1019.0 |
| 20260902182123 | 33 | 115 | 0.0 | 0.0 | 0.00 | 0.00 | 0.00 | 53 | 1018.9 |
| 20260902181619 | 33 | 140 | 3.2 | 3.2 | 0.00 | 0.00 | 0.00 | 56 | 1018.9 |
| 20260902181119 | 34 | 146 | 1.6 | 3.2 | 0.00 | 0.00 | 0.00 | 57 | 1019.0 |
| 20260902180618 | 33 | 134 | 1.6 | 3.2 | 0.00 | 0.00 | 0.00 | 54 | 1019.1 |
| 20260902180116 | 33 | 86 | 1.6 | 3.2 | 0.00 | 0.00 | 0.00 | 55 | 1019.2 |
| 20260902175614 | 33 | 315 | 4.8 | 4.8 | 0.00 | 0.00 | 0.00 | 52 | 1019.1 |
| 20260902175110 | 33 | 274 | 6.4 | 8.0 | 0.00 | 0.00 | 0.00 | 53 | 1018.9 |
| 20260902174606 | 33 | 134 | 1.6 | 3.2 | 0.00 | 0.00 | 0.00 | 55 | 1019.2 |
| 20260902174056 | 33 | 89 | 1.6 | 3.2 | 0.00 | 0.00 | 0.00 | 58 | 1019.2 |
| 20260902173556 | 32 | 127 | 1.6 | 3.2 | 0.00 | 0.00 | 0.00 | 62 | 1019.4 |
| 20260902173051 | 32 | 134 | 4.8 | 4.8 | 0.00 | 0.00 | 0.00 | 61 | 1019.3 |
| 20260902172551 | 32 | 82 | 3.2 | 3.2 | 0.00 | 0.00 | 0.00 | 64 | 1019.5 |
| 20260902172045 | 33 | 251 | 3.2 | 3.2 | 0.00 | 0.00 | 0.00 | 59 | 1019.4 |
| 20260902171541 | 33 | 182 | 4.8 | 4.8 | 0.00 | 0.00 | 0.00 | 59 | 1019.5 |
| 20260902171038 | 33 | 81 | 4.8 | 4.8 | 0.00 | 0.00 | 0.00 | 61 | 1019.6 |
| 20260902170532 | 33 | 139 | 3.2 | 3.2 | 0.00 | 0.00 | 0.00 | 61 | 1019.7 |
| 20260902170028 | 33 | 115 | 0.0 | 0.0 | 0.00 | 0.00 | 0.00 | 59 | 1019.6 |
| 20260902165528 | 32 | 83 | 1.6 | 3.2 | 0.00 | 0.00 | 0.00 | 64 | 1019.5 |
| 20260902165028 | 32 | 299 | 4.8 | 4.8 | 0.00 | 0.00 | 0.00 | 59 | 1019.7 |
| 20260902164523 | 33 | 352 | 3.2 | 3.2 | 0.00 | 0.00 | 0.00 | 60 | 1019.7 |
| 20260902164022 | 33 | 135 | 1.6 | 3.2 | 0.00 | 0.00 | 0.00 | 62 | 1019.7 |
| 20260902163518 | 32 | 180 | 3.2 | 3.2 | 0.00 | 0.00 | 0.00 | 61 | 1019.7 |
| 20260902163016 | 32 | 110 | 3.2 | 4.8 | 0.00 | 0.00 | 0.00 | 61 | 1019.8 |
| 20260902162516 | 33 | 266 | 4.8 | 4.8 | 0.00 | 0.00 | 0.00 | 59 | 1019.6 |
| 20260902162011 | 32 | 164 | 3.2 | 3.2 | 0.00 | 0.00 | 0.00 | 59 | 1019.7 |
| 20260902161506 | 32 | 222 | 3.2 | 3.2 | 0.00 | 0.00 | 0.00 | 58 | 1019.7 |
| 20260902161001 | 32 | 130 | 3.2 | 3.2 | 0.00 | 0.00 | 0.00 | 59 | 1019.8 |
| 20260902160457 | 32 | 78 | 3.2 | 3.2 | 0.00 | 0.00 | 0.00 | 61 | 1019.6 |
| 20260902155955 | 32 | 64 | 4.8 | 4.8 | 0.00 | 0.00 | 0.00 | 60 | 1019.6 |
| 20260902155450 | 32 | 127 | 1.6 | 1.6 | 0.00 | 0.00 | 0.00 | 61 | 1019.7 |
| 20260902154944 | 33 | 115 | 1.6 | 1.6 | 0.00 | 0.00 | 0.00 | 61 | 1019.8 |
| 20260902154440 | 32 | 292 | 3.2 | 3.2 | 0.00 | 0.00 | 0.00 | 62 | 1020.1 |
| 20260902153939 | 32 | 82 | 3.2 | 3.2 | 0.00 | 0.00 | 0.00 | 64 | 1020.1 |
| 20260902153438 | 32 | 31 | 4.8 | 4.8 | 0.00 | 0.00 | 0.00 | 63 | 1020.1 |
| 20260902152934 | 31 | 131 | 3.2 | 3.2 | 0.00 | 0.00 | 0.00 | 65 | 1019.9 |
| 20260902152430 | 31 | 55 | 3.2 | 3.2 | 0.00 | 0.00 | 0.00 | 63 | 1020.1 |
| 20260902151925 | 31 | 106 | 1.6 | 3.2 | 0.00 | 0.00 | 0.00 | 67 | 1020.2 |
| 20260902151421 | 31 | 108 | 3.2 | 4.8 | 0.00 | 0.00 | 0.00 | 64 | 1019.9 |
| 20260902150914 | 31 | 87 | 1.6 | 1.6 | 0.00 | 0.00 | 0.00 | 66 | 1020.3 |
| 20260902150411 | 30 | 253 | 8.0 | 9.7 | 0.00 | 0.00 | 0.00 | 64 | 1020.3 |
| 20260902145910 | 31 | 148 | 4.8 | 4.8 | 0.00 | 0.00 | 0.00 | 65 | 1020.1 |
| 20260902145406 | 31 | 184 | 6.4 | 8.0 | 0.00 | 0.00 | 0.00 | 64 | 1020.2 |
| 20260902144900 | 31 | 106 | 1.6 | 1.6 | 0.00 | 0.00 | 0.00 | 69 | 1020.3 |
| 20260902144357 | 30 | 159 | 3.2 | 3.2 | 0.00 | 0.00 | 0.00 | 65 | 1019.8 |
| 20260902143857 | 30 | 107 | 1.6 | 1.6 | 0.00 | 0.00 | 0.00 | 68 | 1020.1 |
| 20260902143352 | 30 | 129 | 3.2 | 3.2 | 0.00 | 0.00 | 0.00 | 68 | 1019.9 |
| 20260902142848 | 30 | 169 | 3.2 | 4.8 | 0.00 | 0.00 | 0.00 | 66 | 1020.1 |
| 20260902142343 | 30 | 358 | 4.8 | 4.8 | 0.00 | 0.00 | 0.00 | 68 | 1019.8 |
| 20260902141838 | 29 | 130 | 1.6 | 1.6 | 0.00 | 0.00 | 0.00 | 68 | 1020.0 |
| 20260902141334 | 30 | 144 | 3.2 | 3.2 | 0.00 | 0.00 | 0.00 | 69 | 1020.0 |
| 20260902140833 | 29 | 96 | 0.0 | 1.6 | 0.00 | 0.00 | 0.00 | 70 | 1019.9 |
| 20260902140328 | 28 | 272 | 4.8 | 4.8 | 0.00 | 0.00 | 0.00 | 69 | 1020.1 |
| 20260902135827 | 28 | 134 | 3.2 | 3.2 | 0.00 | 0.00 | 0.00 | 69 | 1020.1 |
| 20260902135324 | 28 | 123 | 1.6 | 1.6 | 0.00 | 0.00 | 0.00 | 70 | 1020.1 |
| 20260902134823 | 28 | 129 | 1.6 | 3.2 | 0.00 | 0.00 | 0.00 | 71 | 1020.1 |
| 20260902134318 | 28 | 105 | 1.6 | 1.6 | 0.00 | 0.00 | 0.00 | 72 | 1020.0 |
| 20260902133814 | 28 | 36 | 4.8 | 4.8 | 0.00 | 0.00 | 0.00 | 71 | 1020.1 |
| 20260902133313 | 28 | 120 | 1.6 | 1.6 | 0.00 | 0.00 | 0.00 | 72 | 1020.0 |
| 20260902132809 | 27 | 225 | 6.4 | 8.0 | 0.00 | 0.00 | 0.00 | 71 | 1020.0 |
| 20260902132306 | 27 | 127 | 3.2 | 3.2 | 0.00 | 0.00 | 0.00 | 73 | 1020.0 |
| 20260902131759 | 27 | 101 | 1.6 | 1.6 | 0.00 | 0.00 | 0.00 | 71 | 1020.1 |
| 20260902131255 | 27 | 290 | 4.8 | 4.8 | 0.00 | 0.00 | 0.00 | 72 | 1019.9 |
| 20260902130755 | 27 | 113 | 1.6 | 1.6 | 0.00 | 0.00 | 0.00 | 74 | 1020.0 |
| 20260902130251 | 27 | 118 | 1.6 | 1.6 | 0.00 | 0.00 | 0.00 | 73 | 1019.7 |
| 20260902125746 | 27 | 121 | 1.6 | 1.6 | 0.00 | 0.00 | 0.00 | 75 | 1019.8 |
| 20260902125242 | 26 | 116 | 0.0 | 1.6 | 0.00 | 0.00 | 0.00 | 74 | 1020.1 |
| 20260902124738 | 26 | 118 | 1.6 | 1.6 | 0.00 | 0.00 | 0.00 | 75 | 1019.9 |
| 20260902124233 | 26 | 117 | 1.6 | 1.6 | 0.00 | 0.00 | 0.00 | 75 | 1019.7 |
| 20260902123729 | 26 | 129 | 1.6 | 3.2 | 0.00 | 0.00 | 0.00 | 76 | 1019.8 |
| 20260902123225 | 25 | 123 | 1.6 | 1.6 | 0.00 | 0.00 | 0.00 | 77 | 1019.7 |
| 20260902122723 | 25 | 115 | 1.6 | 1.6 | 0.00 | 0.00 | 0.00 | 78 | 1019.7 |
| 20260902122219 | 25 | 120 | 1.6 | 1.6 | 0.00 | 0.00 | 0.00 | 79 | 1019.8 |
| 20260902121714 | 25 | 116 | 1.6 | 1.6 | 0.00 | 0.00 | 0.00 | 79 | 1019.9 |
| 20260902121209 | 25 | 112 | 1.6 | 1.6 | 0.00 | 0.00 | 0.00 | 80 | 1019.8 |
| 20260902120704 | 25 | 109 | 0.0 | 0.0 | 0.00 | 0.00 | 0.00 | 81 | 1019.5 |
| 20260902120200 | 24 | 109 | 0.0 | 0.0 | 0.00 | 0.00 | 0.00 | 81 | 1019.6 |
| 20260902115701 | 24 | 113 | 0.0 | 0.0 | 0.00 | 0.00 | 0.00 | 82 | 1019.6 |
| 20260902115157 | 23 | 104 | 0.0 | 0.0 | 0.00 | 0.00 | 0.00 | 82 | 1019.6 |
| 20260902114652 | 23 | 104 | 0.0 | 0.0 | 0.00 | 0.00 | 0.00 | 82 | 1019.5 |
| 20260902114147 | 23 | 103 | 0.0 | 0.0 | 0.00 | 0.00 | 0.00 | 82 | 1019.3 |
| 20260902113642 | 23 | 103 | 0.0 | 0.0 | 0.00 | 0.00 | 0.00 | 83 | 1019.4 |
| 20260902113137 | 23 | 104 | 0.0 | 0.0 | 0.00 | 0.00 | 0.00 | 83 | 1019.6 |
| 20260902112632 | 23 | 103 | 0.0 | 0.0 | 0.00 | 0.00 | 0.00 | 83 | 1019.3 |
| 20260902112130 | 23 | 101 | 0.0 | 0.0 | 0.00 | 0.00 | 0.00 | 83 | 1019.3 |
| 20260902111625 | 23 | 103 | 0.0 | 0.0 | 0.00 | 0.00 | 0.00 | 83 | 1019.1 |
| 20260902111121 | 23 | 103 | 0.0 | 0.0 | 0.00 | 0.00 | 0.00 | 82 | 1019.1 |
| 20260902110616 | 23 | 103 | 0.0 | 0.0 | 0.00 | 0.00 | 0.00 | 82 | 1019.4 |
| 20260902110113 | 23 | 103 | 0.0 | 0.0 | 0.00 | 0.00 | 0.00 | 82 | 1019.0 |
| 20260902105606 | 23 | 103 | 0.0 | 0.0 | 0.00 | 0.00 | 0.00 | 82 | 1019.3 |
| 20260902105102 | 23 | 103 | 0.0 | 0.0 | 0.00 | 0.00 | 0.00 | 82 | 1019.2 |
| 20260902104557 | 23 | 102 | 0.0 | 0.0 | 0.00 | 0.00 | 0.00 | 82 | 1019.2 |
| 20260902104057 | 23 | 102 | 0.0 | 0.0 | 0.00 | 0.00 | 0.00 | 82 | 1019.3 |
| 20260902103552 | 23 | 102 | 0.0 | 0.0 | 0.00 | 0.00 | 0.00 | 82 | 1019.2 |
| 20260902103047 | 23 | 102 | 0.0 | 0.0 | 0.00 | 0.00 | 0.00 | 82 | 1019.3 |
| 20260902102544 | 23 | 102 | 0.0 | 0.0 | 0.00 | 0.00 | 0.00 | 83 | 1019.2 |
| 20260902102040 | 23 | 102 | 0.0 | 0.0 | 0.00 | 0.00 | 0.00 | 83 | 1019.3 |
| 20260902101536 | 23 | 102 | 0.0 | 0.0 | 0.00 | 0.00 | 0.00 | 83 | 1019.3 |
| 20260902101034 | 23 | 102 | 0.0 | 0.0 | 0.00 | 0.00 | 0.00 | 83 | 1019.1 |
| 20260902100529 | 23 | 102 | 0.0 | 0.0 | 0.00 | 0.00 | 0.00 | 83 | 1019.0 |
| 20260902100029 | 23 | 102 | 0.0 | 0.0 | 0.00 | 0.00 | 0.00 | 82 | 1019.1 |
| 20260902095528 | 23 | 102 | 0.0 | 0.0 | 0.00 | 0.00 | 0.00 | 82 | 1018.8 |
| 20260902095027 | 23 | 102 | 0.0 | 0.0 | 0.00 | 0.00 | 0.00 | 82 | 1018.8 |
| 20260902094523 | 23 | 102 | 0.0 | 0.0 | 0.00 | 0.00 | 0.00 | 82 | 1019.1 |
| 20260902094018 | 23 | 102 | 0.0 | 0.0 | 0.00 | 0.00 | 0.00 | 82 | 1018.9 |
| 20260902093514 | 23 | 102 | 0.0 | 0.0 | 0.00 | 0.00 | 0.00 | 82 | 1019.0 |
| 20260902093013 | 23 | 102 | 0.0 | 0.0 | 0.00 | 0.00 | 0.00 | 82 | 1018.9 |
| 20260902092508 | 23 | 102 | 0.0 | 0.0 | 0.00 | 0.00 | 0.00 | 82 | 1019.0 |
| 20260902092003 | 23 | 102 | 0.0 | 0.0 | 0.00 | 0.00 | 0.00 | 82 | 1019.0 |
| 20260902091458 | 23 | 102 | 0.0 | 0.0 | 0.00 | 0.00 | 0.00 | 82 | 1019.0 |
| 20260902090954 | 23 | 102 | 0.0 | 0.0 | 0.00 | 0.00 | 0.00 | 81 | 1018.8 |
| 20260902090449 | 23 | 102 | 0.0 | 0.0 | 0.00 | 0.00 | 0.00 | 81 | 1018.9 |
| 20260902085948 | 23 | 102 | 0.0 | 0.0 | 0.00 | 0.00 | 0.00 | 81 | 1018.9 |
| 20260902085443 | 23 | 102 | 0.0 | 0.0 | 0.00 | 0.00 | 0.00 | 81 | 1018.7 |
| 20260902084939 | 23 | 102 | 0.0 | 0.0 | 0.00 | 0.00 | 0.00 | 81 | 1018.6 |
| 20260902084435 | 24 | 102 | 0.0 | 0.0 | 0.00 | 0.00 | 0.00 | 80 | 1018.7 |
| 20260902083930 | 24 | 102 | 0.0 | 0.0 | 0.00 | 0.00 | 0.00 | 80 | 1018.7 |
| 20260902083424 | 24 | 102 | 0.0 | 0.0 | 0.00 | 0.00 | 0.00 | 80 | 1018.6 |
| 20260902082919 | 24 | 102 | 0.0 | 0.0 | 0.00 | 0.00 | 0.00 | 80 | 1018.6 |
| 20260902082415 | 24 | 102 | 0.0 | 0.0 | 0.00 | 0.00 | 0.00 | 80 | 1018.4 |
| 20260902081911 | 24 | 102 | 0.0 | 0.0 | 0.00 | 0.00 | 0.00 | 80 | 1018.1 |
| 20260902081408 | 24 | 102 | 0.0 | 0.0 | 0.00 | 0.00 | 0.00 | 80 | 1018.3 |
| 20260902080902 | 24 | 102 | 0.0 | 0.0 | 0.00 | 0.00 | 0.00 | 80 | 1018.4 |
| 20260902080358 | 23 | 102 | 0.0 | 0.0 | 0.00 | 0.00 | 0.00 | 80 | 1018.1 |
| 20260902075857 | 23 | 102 | 0.0 | 0.0 | 0.00 | 0.00 | 0.00 | 80 | 1018.5 |
| 20260902075354 | 24 | 102 | 0.0 | 0.0 | 0.00 | 0.00 | 0.00 | 80 | 1018.3 |
| 20260902074849 | 24 | 102 | 0.0 | 0.0 | 0.00 | 0.00 | 0.00 | 81 | 1018.4 |
| 20260902074345 | 23 | 102 | 0.0 | 0.0 | 0.00 | 0.00 | 0.00 | 81 | 1018.4 |
| 20260902073840 | 23 | 102 | 0.0 | 0.0 | 0.00 | 0.00 | 0.00 | 81 | 1018.4 |
| 20260902073336 | 23 | 102 | 0.0 | 0.0 | 0.00 | 0.00 | 0.00 | 80 | 1018.3 |
| 20260902072832 | 24 | 102 | 0.0 | 0.0 | 0.00 | 0.00 | 0.00 | 80 | 1018.4 |
| 20260902072327 | 24 | 102 | 0.0 | 0.0 | 0.00 | 0.00 | 0.00 | 80 | 1018.0 |
| 20260902071823 | 24 | 102 | 0.0 | 0.0 | 0.00 | 0.00 | 0.00 | 80 | 1018.4 |
| 20260902071318 | 24 | 102 | 0.0 | 0.0 | 0.00 | 0.00 | 0.00 | 80 | 1018.3 |
| 20260902070815 | 24 | 102 | 0.0 | 0.0 | 0.00 | 0.00 | 0.00 | 80 | 1018.5 |
| 20260902070314 | 24 | 102 | 0.0 | 0.0 | 0.00 | 0.00 | 0.00 | 80 | 1018.3 |
| 20260902065813 | 24 | 102 | 0.0 | 0.0 | 0.00 | 0.00 | 0.00 | 80 | 1018.3 |
| 20260902065308 | 24 | 102 | 0.0 | 0.0 | 0.00 | 0.00 | 0.00 | 80 | 1018.3 |
| 20260902064804 | 24 | 101 | 0.0 | 0.0 | 0.00 | 0.00 | 0.00 | 79 | 1018.5 |
| 20260902064300 | 25 | 101 | 0.0 | 0.0 | 0.00 | 0.00 | 0.00 | 79 | 1018.1 |
| 20260902063755 | 25 | 102 | 0.0 | 0.0 | 0.00 | 0.00 | 0.00 | 79 | 1018.3 |
| 20260902063249 | 25 | 102 | 0.0 | 0.0 | 0.00 | 0.00 | 0.00 | 78 | 1018.3 |
| 20260902062749 | 25 | 102 | 0.0 | 0.0 | 0.00 | 0.00 | 0.00 | 78 | 1018.4 |
| 20260902062244 | 25 | 102 | 0.0 | 0.0 | 0.00 | 0.00 | 0.00 | 78 | 1018.1 |
| 20260902061743 | 25 | 102 | 0.0 | 0.0 | 0.00 | 0.00 | 0.00 | 77 | 1018.5 |
| 20260902061238 | 25 | 102 | 0.0 | 0.0 | 0.00 | 0.00 | 0.00 | 77 | 1018.3 |
| 20260902060736 | 25 | 102 | 0.0 | 0.0 | 0.00 | 0.00 | 0.00 | 77 | 1018.4 |
| 20260902060231 | 25 | 102 | 0.0 | 0.0 | 0.00 | 0.00 | 0.00 | 77 | 1018.5 |
| 20260902055726 | 25 | 102 | 0.0 | 0.0 | 0.00 | 0.00 | 0.00 | 77 | 1018.5 |
| 20260902055222 | 25 | 102 | 0.0 | 0.0 | 0.00 | 0.00 | 0.00 | 77 | 1018.7 |
| 20260902054717 | 25 | 102 | 0.0 | 0.0 | 0.00 | 0.00 | 0.00 | 76 | 1018.4 |
| 20260902054213 | 25 | 102 | 0.0 | 0.0 | 0.00 | 0.00 | 0.00 | 76 | 1018.3 |
| 20260902053708 | 25 | 102 | 0.0 | 0.0 | 0.00 | 0.00 | 0.00 | 76 | 1018.3 |
| 20260902053208 | 25 | 102 | 0.0 | 0.0 | 0.00 | 0.00 | 0.00 | 76 | 1018.4 |
| 20260902052707 | 25 | 102 | 0.0 | 0.0 | 0.00 | 0.00 | 0.00 | 76 | 1018.4 |
| 20260902052203 | 25 | 102 | 0.0 | 0.0 | 0.00 | 0.00 | 0.00 | 76 | 1018.4 |
| 20260902051702 | 25 | 102 | 0.0 | 0.0 | 0.00 | 0.00 | 0.00 | 76 | 1018.4 |
| 20260902051156 | 25 | 102 | 0.0 | 0.0 | 0.00 | 0.00 | 0.00 | 76 | 1018.4 |
| 20260902050651 | 25 | 102 | 0.0 | 0.0 | 0.00 | 0.00 | 0.00 | 76 | 1018.4 |
| 20260902050147 | 25 | 102 | 0.0 | 0.0 | 0.00 | 0.00 | 0.00 | 75 | 1018.5 |
| 20260902045641 | 25 | 102 | 0.0 | 0.0 | 0.00 | 0.00 | 0.00 | 75 | 1018.4 |
| 20260902045137 | 25 | 102 | 0.0 | 0.0 | 0.00 | 0.00 | 0.00 | 75 | 1018.5 |
| 20260902044632 | 26 | 102 | 0.0 | 0.0 | 0.00 | 0.00 | 0.00 | 75 | 1018.5 |
| 20260902044128 | 26 | 102 | 0.0 | 0.0 | 0.00 | 0.00 | 0.00 | 74 | 1018.6 |
| 20260902043623 | 26 | 102 | 0.0 | 0.0 | 0.00 | 0.00 | 0.00 | 75 | 1018.4 |
| 20260902043118 | 26 | 102 | 0.0 | 0.0 | 0.00 | 0.00 | 0.00 | 74 | 1018.1 |
| 20260902042617 | 26 | 102 | 0.0 | 0.0 | 0.00 | 0.00 | 0.00 | 73 | 1018.6 |
| 20260902042113 | 26 | 102 | 0.0 | 0.0 | 0.00 | 0.00 | 0.00 | 73 | 1018.7 |
| 20260902041613 | 26 | 102 | 0.0 | 0.0 | 0.00 | 0.00 | 0.00 | 73 | 1018.6 |
| 20260902041107 | 26 | 102 | 0.0 | 0.0 | 0.00 | 0.00 | 0.00 | 73 | 1018.5 |
| 20260902040601 | 26 | 102 | 0.0 | 0.0 | 0.00 | 0.00 | 0.00 | 73 | 1018.6 |
| 20260902040056 | 26 | 102 | 0.0 | 0.0 | 0.00 | 0.00 | 0.00 | 73 | 1018.6 |
| 20260902035555 | 26 | 102 | 0.0 | 0.0 | 0.00 | 0.00 | 0.00 | 72 | 1018.6 |
| 20260902035050 | 26 | 102 | 0.0 | 0.0 | 0.00 | 0.00 | 0.00 | 72 | 1018.5 |
| 20260902034550 | 26 | 102 | 0.0 | 0.0 | 0.00 | 0.00 | 0.00 | 72 | 1018.6 |
| 20260902034049 | 26 | 102 | 0.0 | 0.0 | 0.00 | 0.00 | 0.00 | 72 | 1018.5 |
| 20260902033548 | 27 | 102 | 0.0 | 0.0 | 0.00 | 0.00 | 0.00 | 71 | 1018.6 |
| 20260902033043 | 27 | 102 | 0.0 | 0.0 | 0.00 | 0.00 | 0.00 | 71 | 1018.6 |
| 20260902032542 | 27 | 102 | 0.0 | 0.0 | 0.00 | 0.00 | 0.00 | 71 | 1018.7 |
| 20260902032037 | 27 | 102 | 0.0 | 0.0 | 0.00 | 0.00 | 0.00 | 71 | 1018.5 |
| 20260902031532 | 27 | 101 | 0.0 | 0.0 | 0.00 | 0.00 | 0.00 | 71 | 1018.4 |
| 20260902031028 | 27 | 102 | 0.0 | 0.0 | 0.00 | 0.00 | 0.00 | 71 | 1018.4 |
| 20260902030522 | 27 | 102 | 0.0 | 0.0 | 0.00 | 0.00 | 0.00 | 70 | 1018.5 |
| 20260902030017 | 27 | 101 | 0.0 | 0.0 | 0.00 | 0.00 | 0.00 | 70 | 1018.5 |
| 20260902025511 | 27 | 101 | 0.0 | 0.0 | 0.00 | 0.00 | 0.00 | 70 | 1018.5 |
| 20260902025006 | 27 | 102 | 0.0 | 0.0 | 0.00 | 0.00 | 0.00 | 70 | 1018.4 |
| 20260902024502 | 27 | 101 | 0.0 | 0.0 | 0.00 | 0.00 | 0.00 | 70 | 1018.6 |
| 20260902023956 | 27 | 101 | 0.0 | 0.0 | 0.00 | 0.00 | 0.00 | 71 | 1018.5 |
| 20260902023452 | 27 | 101 | 0.0 | 0.0 | 0.00 | 0.00 | 0.00 | 71 | 1018.6 |
| 20260902022951 | 27 | 101 | 0.0 | 0.0 | 0.00 | 0.00 | 0.00 | 71 | 1018.5 |
| 20260902022447 | 27 | 101 | 0.0 | 0.0 | 0.00 | 0.00 | 0.00 | 71 | 1018.3 |
| 20260902021942 | 27 | 101 | 0.0 | 0.0 | 0.00 | 0.00 | 0.00 | 71 | 1018.6 |
| 20260902021437 | 27 | 101 | 0.0 | 0.0 | 0.00 | 0.00 | 0.00 | 71 | 1018.5 |
| 20260902020932 | 27 | 101 | 0.0 | 0.0 | 0.00 | 0.00 | 0.00 | 71 | 1018.5 |
| 20260902020428 | 27 | 101 | 0.0 | 0.0 | 0.00 | 0.00 | 0.00 | 71 | 1018.4 |
| 20260902015923 | 27 | 101 | 0.0 | 0.0 | 0.00 | 0.00 | 0.00 | 71 | 1018.4 |
| 20260902015419 | 27 | 101 | 0.0 | 0.0 | 0.00 | 0.00 | 0.00 | 71 | 1018.7 |
| 20260902014914 | 27 | 101 | 0.0 | 0.0 | 0.00 | 0.00 | 0.00 | 71 | 1018.5 |
| 20260902014411 | 27 | 101 | 0.0 | 0.0 | 0.00 | 0.00 | 0.00 | 71 | 1018.5 |
| 20260902013909 | 27 | 101 | 0.0 | 0.0 | 0.00 | 0.00 | 0.00 | 70 | 1018.4 |
| 20260902013405 | 27 | 101 | 0.0 | 0.0 | 0.00 | 0.00 | 0.00 | 70 | 1018.5 |
| 20260902012901 | 27 | 101 | 0.0 | 0.0 | 0.00 | 0.00 | 0.00 | 70 | 1018.4 |
| 20260902012357 | 27 | 101 | 0.0 | 0.0 | 0.00 | 0.00 | 0.00 | 69 | 1018.4 |
| 20260902011852 | 27 | 101 | 0.0 | 0.0 | 0.00 | 0.00 | 0.00 | 69 | 1018.1 |
| 20260902011347 | 28 | 101 | 0.0 | 0.0 | 0.00 | 0.00 | 0.00 | 68 | 1018.3 |
| 20260902010847 | 28 | 101 | 0.0 | 0.0 | 0.00 | 0.00 | 0.00 | 68 | 1018.4 |
| 20260902010341 | 28 | 101 | 0.0 | 0.0 | 0.00 | 0.00 | 0.00 | 68 | 1017.9 |
| 20260902005841 | 28 | 102 | 0.0 | 0.0 | 0.00 | 0.00 | 0.00 | 68 | 1018.0 |
| 20260902005335 | 28 | 102 | 0.0 | 0.0 | 0.00 | 0.00 | 0.00 | 67 | 1017.8 |
| 20260902004831 | 28 | 102 | 0.0 | 0.0 | 0.00 | 0.00 | 0.00 | 67 | 1017.9 |
| 20260902004325 | 28 | 102 | 0.0 | 0.0 | 0.00 | 0.00 | 0.00 | 67 | 1017.9 |
| 20260902003820 | 28 | 102 | 0.0 | 0.0 | 0.00 | 0.00 | 0.00 | 67 | 1017.8 |
| 20260902003315 | 28 | 102 | 0.0 | 0.0 | 0.00 | 0.00 | 0.00 | 66 | 1017.9 |
| 20260902002811 | 28 | 102 | 0.0 | 0.0 | 0.00 | 0.00 | 0.00 | 66 | 1018.0 |
| 20260902002310 | 28 | 102 | 0.0 | 0.0 | 0.00 | 0.00 | 0.00 | 66 | 1018.0 |
| 20260902001806 | 29 | 102 | 0.0 | 0.0 | 0.00 | 0.00 | 0.00 | 65 | 1017.9 |
| 20260902001301 | 29 | 102 | 0.0 | 0.0 | 0.00 | 0.00 | 0.00 | 65 | 1018.3 |
| 20260902000800 | 29 | 101 | 0.0 | 0.0 | 0.00 | 0.00 | 0.00 | 64 | 1018.3 |
| 20260902000257 | 30 | 102 | 0.0 | 0.0 | 0.00 | 0.00 | 0.00 | 64 | 1018.1 |
| 20260901235750 | 30 | 101 | 0.0 | 0.0 | 0.00 | 0.00 | 0.00 | 63 | 1018.3 |
| 20260901235245 | 30 | 101 | 0.0 | 0.0 | 0.00 | 0.00 | 0.00 | 63 | 1018.4 |
| 20260901234744 | 30 | 102 | 0.0 | 0.0 | 0.00 | 0.00 | 0.00 | 62 | 1018.1 |
| 20260901234239 | 31 | 102 | 0.0 | 0.0 | 0.00 | 0.00 | 0.00 | 62 | 1017.9 |
| 20260901233734 | 31 | 102 | 0.0 | 0.0 | 0.00 | 0.00 | 0.00 | 62 | 1018.3 |
| 20260901233231 | 31 | 102 | 0.0 | 0.0 | 0.00 | 0.00 | 0.00 | 61 | 1018.5 |
| 20260901232731 | 31 | 102 | 0.0 | 0.0 | 0.00 | 0.00 | 0.00 | 59 | 1018.4 |
| 20260901232226 | 32 | 105 | 0.0 | 0.0 | 0.00 | 0.00 | 0.00 | 59 | 1018.4 |
| 20260901231722 | 32 | 105 | 0.0 | 0.0 | 0.00 | 0.00 | 0.00 | 57 | 1018.5 |
| 20260901231218 | 32 | 105 | 0.0 | 0.0 | 0.00 | 0.00 | 0.00 | 55 | 1018.4 |
| 20260901230714 | 32 | 105 | 0.0 | 0.0 | 0.00 | 0.00 | 0.00 | 57 | 1018.1 |
| 20260901230213 | 33 | 98 | 1.6 | 3.2 | 0.00 | 0.00 | 0.00 | 53 | 1018.5 |
| 20260901225709 | 33 | 104 | 0.0 | 0.0 | 0.00 | 0.00 | 0.00 | 55 | 1018.1 |
| 20260901225203 | 33 | 88 | 1.6 | 1.6 | 0.00 | 0.00 | 0.00 | 53 | 1018.5 |
| 20260901224659 | 33 | 110 | 0.0 | 0.0 | 0.00 | 0.00 | 0.00 | 56 | 1018.1 |
| 20260901224155 | 33 | 42 | 3.2 | 3.2 | 0.00 | 0.00 | 0.00 | 51 | 1018.4 |
| 20260901223650 | 33 | 118 | 0.0 | 0.0 | 0.00 | 0.00 | 0.00 | 54 | 1018.1 |
| 20260901223145 | 33 | 287 | 3.2 | 3.2 | 0.00 | 0.00 | 0.00 | 52 | 1018.4 |
| 20260901222642 | 32 | 33 | 3.2 | 3.2 | 0.00 | 0.00 | 0.00 | 51 | 1018.4 |
| 20260901222137 | 32 | 103 | 0.0 | 0.0 | 0.00 | 0.00 | 0.00 | 57 | 1017.8 |
| 20260901221633 | 32 | 127 | 3.2 | 4.8 | 0.00 | 0.00 | 0.00 | 53 | 1018.3 |
| 20260901221129 | 32 | 97 | 0.0 | 0.0 | 0.00 | 0.00 | 0.00 | 57 | 1018.4 |
| 20260901220628 | 32 | 85 | 1.6 | 1.6 | 0.00 | 0.00 | 0.00 | 53 | 1018.3 |
| 20260901220127 | 33 | 273 | 4.8 | 4.8 | 0.00 | 0.00 | 0.00 | 53 | 1018.1 |
| 20260901215625 | 33 | 107 | 3.2 | 3.2 | 0.00 | 0.00 | 0.00 | 56 | 1018.4 |
| 20260901215120 | 33 | 70 | 3.2 | 3.2 | 0.00 | 0.00 | 0.00 | 56 | 1018.3 |
| 20260901214618 | 33 | 149 | 3.2 | 3.2 | 0.00 | 0.00 | 0.00 | 53 | 1018.3 |
| 20260901214113 | 33 | 280 | 3.2 | 3.2 | 0.00 | 0.00 | 0.00 | 54 | 1018.1 |
| 20260901213613 | 33 | 118 | 1.6 | 1.6 | 0.00 | 0.00 | 0.00 | 54 | 1018.3 |
| 20260901213107 | 33 | 209 | 4.8 | 4.8 | 0.00 | 0.00 | 0.00 | 53 | 1018.1 |